ENTRYSAT (44429 NORAD) Tracking and Keplerian Element Data

This shows tracking and keplerian element data for the satellite.

Feedback or suggestion? Click here.




ElementValue
Catalog44429
NameENTRYSAT
Epoch Orbit1700
Epoch Day293.45443363
Epoch Year2019
RAAN98.649
Inclination51.6401
Eccentricity0.0003423
Argument of Perigee147.1133
Mean Anonmoly213.0071
Mean Motion15.53241118
Decay Rate0.00010158
L11 44429U 98067QP 19293.45443363 .00010158 00000-0 16566-3 0 9991
L22 44429 51.6401 98.6490 0003423 147.1133 213.0071 15.53241118 17003

Live tracking and technical data element details for ENTRYSAT (NORAD 44429). ENTRYSAT can be tracked NOW for your location showing map with azimuth and elevation plus other details from your city location.

Track the satellite on the map from your city or location and see movement details for azimuth, elevation, latitude, longitude, range, height, and movement on the map or in text.







IsCatalogInMostPopularTable: catalog: 44429, numindb: 17
Update: records affected: 1



GetName: 44429 ENTRYSAT

Hit Count: updated at: Tue, 22 Oct 2019 23:29:15 GMT